Weather History for Fort Wayne, IN

Change the Weather History Date:

Tuesday, December 24, 2013

  Actual Average Record
Temperature  
Mean Temperature 12 °F 27 °F  
Max Temperature 19 °F 34 °F 62 °F (1932)
Min Temperature 4 °F 20 °F -16 °F (1983)
Degree Days  
Heating Degree Days 53 38  
Month to date heating degree days 895 839  
Since 1 July heating degree days 2196 2056  
Cooling Degree Days 0 0  
Month to date cooling degree days 0 0  
Year to date cooling degree days 855 809  
Moisture  
Dew Point 5 °F    
Average Humidity 78    
Maximum Humidity 88    
Minimum Humidity 67    
Precipitation  
Precipitation T in 0.09 in 1.04 in (1965)
Month to date precipitation 2.80 2.17  
Year to date precipitation 42.15 37.74  
Snow  
Snow T in 0.30 in 3.50 in (1934)
Month to date snowfall 8.5 6.2  
Since 1 July snowfall 9.5 8.3  
Snow Depth 0.00 in    
Sea Level Pressure  
Sea Level Pressure 30.51 in    
Wind  
Wind Speed 10 mph (WSW)    
Max Wind Speed 18 mph    
Max Gust Speed 23 mph    
Visibility 10 miles    
Events Snow    
T = Trace of Precipitation, MM = Missing Value Source: NWS Daily Summary

Daily Weather History Graph

Daily Weather History Graph

Search for Another Location

Airport:

Trip Planner

Search our weather history database for the weather conditions in past years. The results will help you decide how hot, cold, wet, or windy it might be!

Date:

Astronomy

Dec. 24, 2013 Rise Set
Actual Time 8:03 AM EST 5:17 PM EST
Civil Twilight 7:32 AM EST 5:48 PM EST
Nautical Twilight 6:57 AM EST 6:23 PM EST
Astronomical Twilight 6:24 AM EST 6:56 PM EST
Moon No Moon Rise 11:54 AM EST (12/24)
Length of Visible Light 10h 16m
Length of Day
9h 13m
Waning Gibbous, 59% of the Moon is Illuminated
Dec 24
Waning Gibbous
Dec 25
Last Quarter
Jan 1
New
Jan 7
First Quarter
Jan 15
Full

Hourly Weather History & Observations

Time (EST) Temp. Windchill Dew Point Humidity Pressure Visibility Wind Dir Wind Speed Gust Speed Precip Events Conditions
12:54 AM 12.0 °F -3.4 °F 5.0 °F 73% 30.42 in 10.0 mi West 13.8 mph 23.0 mph 0.00 in Snow Light Snow
1:08 AM 12.2 °F -2.5 °F 6.8 °F 79% 30.38 in 8.0 mi West 12.7 mph - 0.00 in Snow Light Snow
1:54 AM 10.9 °F -5.4 °F 5.0 °F 77% 30.43 in 10.0 mi West 15.0 mph - 0.00 in Snow Light Snow
2:54 AM 10.0 °F -5.9 °F 3.0 °F 73% 30.45 in 10.0 mi West 13.8 mph - 0.00 in Snow Light Snow
3:54 AM 9.0 °F -6.6 °F 3.9 °F 80% 30.45 in 5.0 mi WSW 12.7 mph - 0.00 in Snow Light Snow
4:54 AM 7.0 °F -9.8 °F 1.9 °F 80% 30.46 in 8.0 mi WNW 13.8 mph - 0.00 in   Mostly Cloudy
5:05 AM 6.8 °F -9.3 °F -0.4 °F 72% 30.41 in 10.0 mi West 12.7 mph - N/A   Scattered Clouds
5:54 AM 5.0 °F -12.3 °F -0.9 °F 76% 30.48 in 10.0 mi West 13.8 mph - N/A   Scattered Clouds
6:10 AM 5.0 °F -13.0 °F -0.4 °F 78% 30.44 in 10.0 mi West 15.0 mph - N/A   Mostly Cloudy
6:38 AM 5.0 °F -11.6 °F -0.4 °F 78% 30.45 in 10.0 mi WNW 12.7 mph - N/A   Scattered Clouds
6:54 AM 5.0 °F -10.8 °F -0.0 °F 80% 30.50 in 10.0 mi WNW 11.5 mph - N/A   Scattered Clouds
7:18 AM 5.0 °F -10.0 °F -0.4 °F 78% 30.46 in 10.0 mi WNW 10.4 mph - 0.00 in Snow Light Snow
7:31 AM 5.0 °F -10.8 °F -0.4 °F 78% 30.46 in 10.0 mi West 11.5 mph - 0.00 in   Scattered Clouds
7:54 AM 3.9 °F -13.7 °F -0.9 °F 80% 30.52 in 10.0 mi West 13.8 mph - 0.00 in   Scattered Clouds
8:54 AM 5.0 °F -10.8 °F -0.9 °F 76% 30.54 in 10.0 mi West 11.5 mph - 0.00 in Snow Light Snow
9:54 AM 7.0 °F -9.1 °F 1.0 °F 77% 30.56 in 10.0 mi WSW 12.7 mph - 0.00 in   Scattered Clouds
10:54 AM 9.0 °F -6.6 °F 1.9 °F 73% 30.58 in 10.0 mi West 12.7 mph - N/A   Scattered Clouds
11:54 AM 12.0 °F -1.3 °F 5.0 °F 73% 30.57 in 10.0 mi West 10.4 mph - N/A   Scattered Clouds
12:54 PM 15.1 °F 2.5 °F 7.0 °F 70% 30.56 in 10.0 mi West 10.4 mph - N/A   Scattered Clouds
1:54 PM 16.0 °F 3.6 °F 8.1 °F 71% 30.56 in 10.0 mi WSW 10.4 mph - N/A   Partly Cloudy
2:54 PM 18.0 °F 6.9 °F 9.0 °F 68% 30.56 in 10.0 mi West 9.2 mph - N/A   Scattered Clouds
3:54 PM 18.0 °F 7.7 °F 9.0 °F 68% 30.56 in 10.0 mi WSW 8.1 mph - N/A   Partly Cloudy
4:54 PM 17.1 °F 8.7 °F 9.0 °F 71% 30.57 in 10.0 mi WSW 5.8 mph - N/A   Partly Cloudy
5:54 PM 14.0 °F 5.1 °F 8.1 °F 77% 30.57 in 10.0 mi SSW 5.8 mph - N/A   Partly Cloudy
6:54 PM 12.9 °F 5.2 °F 9.0 °F 84% 30.58 in 10.0 mi South 4.6 mph - N/A   Clear
7:54 PM 12.0 °F 5.9 °F 8.1 °F 84% 30.57 in 10.0 mi SSE 3.5 mph - N/A   Clear
8:54 PM 12.0 °F 5.9 °F 8.1 °F 84% 30.56 in 10.0 mi SE 3.5 mph - N/A   Clear
9:54 PM 15.1 °F 9.4 °F 10.9 °F 84% 30.55 in 10.0 mi SSE 3.5 mph - N/A   Clear
10:54 PM 16.0 °F 8.8 °F 12.0 °F 84% 30.54 in 10.0 mi South 4.6 mph - N/A   Partly Cloudy
11:54 PM 16.0 °F 7.4 °F 10.9 °F 81% 30.51 in 10.0 mi SE 5.8 mph - N/A   Partly Cloudy